Meteo Giornale » Osservazioni meteo Stati Uniti (USA) » Teller
ore: 09:56 - Osservazioni Meteo Teller
Lat. 65° 14' N Lon. 166° 20' W Alt. 90 metri s.l.m.
4 °C
Coperto
Temp. 24 Ore
1 °C
6 °C
Ovest
11.1 Km/h
Dew point 3 °C
Umidità 93 %
Visibilità 10 Km
Il sole sorge alle ore 07:42
Il sole tramonta alle ore 22:28
| Data e Ora | Cielo e Fenomeni | T °C | DP °C | Um. % | Pres. hPa | Vis. km | Vento km/h | |
|---|---|---|---|---|---|---|---|---|
| Oggi h: 09:56 | Coperto | 4 | 3 | 93 | 1014 | 10 | O 11.1 | |
| Oggi h: 09:36 | Coperto | 4 | 3 | 93 | 1014 | 10 | O 9.3 | |
| Oggi h: 08:56 | Coperto | 4 | 3 | 93 | 1014 | 10 | N 5.5 | |
| Oggi h: 08:53 | Coperto | 4 | 3 | 93 | 1014 | 10 | N 0 | |
| Oggi h: 07:56 | Coperto | 4 | 3 | 93 | 1014 | 10 | N 5.5 | |
| Oggi h: 07:46 | Coperto | 4 | 3 | 93 | 1014 | 10 | NO 7.4 | |
| Oggi h: 06:56 | Coperto | 3 | 3 | 100 | 1014 | 10 | N/NO 14.8 | |
| Oggi h: 06:35 | Coperto | 4 | 3 | 93 | 1014 | 10 | N/NO 9.3 | |
| Oggi h: 05:56 | Coperto | 4 | 3 | 93 | 1014 | 10 | N/NO 16.7 | |
| Oggi h: 05:35 | Coperto | 4 | 3 | 93 | 1014 | 10 | N/NO 18.5 | |
| Oggi h: 05:06 | Coperto | 4 | 3 | 93 | 1014 | 10 | N/NO 20.3 | |
| Oggi h: 04:56 | Coperto | 4 | 3 | 93 | 1014 | 10 | NO 22.2 | |
| Oggi h: 03:56 | Coperto | 4 | 3 | 93 | 1013 | 10 | NO 20.3 | |
| Oggi h: 02:56 | Coperto | 4 | 3 | 93 | 1013 | 10 | NO 22.2 | |
| Oggi h: 01:56 | Coperto | 4 | 3 | 93 | 1013 | 10 | NO 24 | |
| Oggi h: 00:56 | Coperto | 4 | 3 | 93 | 1012 | 10 | NO 31.5 | |
| Ieri h: 23:56 | Coperto | 4 | 3 | 93 | 1012 | 10 | O/NO 24 | |
| Ieri h: 23:26 | Coperto | 3 | 3 | 100 | 1011 | 10 | NO 27.8 | |
| Ieri h: 22:56 | Coperto | 3 | 2 | 93 | 1011 | 10 | NO 33.3 | |
| Ieri h: 21:56 | Coperto | 4 | 2 | 86 | 1011 | 14 | NO 27.8 | |
| Ieri h: 21:25 | Coperto | 4 | 2 | 86 | 1010 | 10 | NO 33.3 | |
| Ieri h: 20:56 | Pioggia | 4 | 2 | 86 | 1010 | 10 | NO 25.9 | |
| Ieri h: 19:56 | Coperto | 4 | 1 | 80 | 1009 | 10 | NO 29.6 | |
| Ieri h: 18:56 | Pioggia | 4 | 2 | 86 | 1008 | 10 | NO 27.8 | |
| Ieri h: 17:56 | Pioggia | 4 | 1 | 80 | 1008 | 10 | O/NO 31.5 | |
| Ieri h: 16:56 | Coperto | 4 | 1 | 80 | 1007 | 10 | NO 18.5 | |
| Ieri h: 16:15 | Coperto | 4 | 1 | 80 | 1006 | 10 | O/NO 31.5 | |
| Ieri h: 15:56 | Coperto | 3 | 2 | 93 | 1006 | 10 | O/NO 35.2 | |
| Ieri h: 15:22 | Pioggia | 2 | 2 | 100 | 1006 | 14 | O/NO 37 | |
| Ieri h: 15:12 | Neve Foschia | 1 | 1 | 100 | 1006 | 6 | O 35.2 | |
| Ieri h: 15:04 | Pioggia Foschia | 1 | 1 | 100 | 1006 | 2 | O/NO 38.8 | |
| Ieri h: 14:56 | Pioggia | 3 | 2 | 93 | 1006 | 11 | O 29.6 | |
| Ieri h: 14:52 | Pioggia | 3 | 2 | 93 | 1006 | 10 | O 22.2 | |
| Ieri h: 14:05 | Pioggia | 2 | 2 | 100 | 1007 | 14 | O 37 | |
| Ieri h: 13:56 | Pioggia | 3 | 2 | 93 | 1007 | 10 | O 33.3 | |
| Ieri h: 13:13 | Pioggia | 4 | 2 | 86 | 1007 | 10 | O 33.3 | |
| Ieri h: 12:56 | Pioggia | 4 | 2 | 86 | 1007 | 10 | O 35.2 | |
| Ieri h: 11:56 | Coperto | 6 | 1 | 70 | 1007 | 10 | O 40.7 | |
| Ieri h: 10:56 | Molto Nuvoloso | 6 | 2 | 75 | 1007 | 10 | O 40.7 | |
| Ieri h: 10:33 | Molto Nuvoloso | 6 | 2 | 75 | 1007 | 10 | O 35.2 | |



